Emporia, KS

11:29 AM CST on February 27, 2017 (GMT -0600)
Emporia Municipal

Weather History for KEMP - February, 2014

Change the Weather History Date:

Friday, February 21, 2014

  Actual Average Record
Temperature  
Mean Temperature 42 °F 37 °F  
Max Temperature 59 °F 48 °F 70 °F (2017)
Min Temperature 24 °F 26 °F 15 °F (2006)
Degree Days  
Heating Degree Days 23 28  
Month to date heating degree days 800 647  
Since 1 July heating degree days 4071 3635  
Cooling Degree Days 0 0  
Month to date cooling degree days 0 0  
Year to date cooling degree days 0 0  
Moisture  
Dew Point 20 °F    
Average Humidity 47    
Maximum Humidity 75    
Minimum Humidity 19    
Precipitation  
Precipitation 0.00 in 0.04 in 0.58 in (2013)
Month to date precipitation 0.28 0.92  
Year to date precipitation 0.48 1.55  
Sea Level Pressure  
Sea Level Pressure 29.92 in    
Wind  
Wind Speed 13 mph (WSW)    
Max Wind Speed 32 mph    
Max Gust Speed 43 mph    
Visibility 10 miles    
Events      
T = Trace of Precipitation, MM = Missing Value Source: NWS Daily Summary

Daily Weather History Graph

Daily Weather History Graph

Search for Another Location

Airport or City:

Trip Planner

Search our weather history database for the weather conditions in past years. The results will help you decide how hot, cold, wet, or windy it might be!

Date:

Astronomy

Feb. 21, 2014 Rise Set
Actual Time 7:07 AM CST 6:09 PM CST
Civil Twilight 6:40 AM CST 6:36 PM CST
Nautical Twilight 6:10 AM CST 7:07 PM CST
Astronomical Twilight 5:39 AM CST 7:37 PM CST
Moon No Moon Rise 10:38 AM CST (2/21)
Length of Visible Light 11h 55m
Length of Day
11h 02m
Waning Gibbous, 60% of the Moon is Illuminated
Feb 21
Waning Gibbous
Feb 22
Last Quarter
Mar 1
New
Mar 8
First Quarter
Mar 16
Full

Hourly Weather History & Observations

Time (CST) Temp. Windchill Dew Point Humidity Pressure Visibility Wind Dir Wind Speed Gust Speed Precip Events Conditions
12:53 AM 33.1 °F 24.4 °F 21.9 °F 64% 29.94 in 10.0 mi West 11.5 mph - N/A   Clear
1:53 AM 32.0 °F 24.2 °F 21.9 °F 66% 29.95 in 10.0 mi West 9.2 mph - N/A   Clear
2:53 AM 32.0 °F 22.1 °F 21.9 °F 66% 29.96 in 10.0 mi West 13.8 mph - N/A   Clear
3:53 AM 30.0 °F 22.4 °F 21.0 °F 69% 29.96 in 10.0 mi West 8.1 mph - N/A   Clear
4:53 AM 28.9 °F 21.9 °F 21.0 °F 72% 29.96 in 10.0 mi West 6.9 mph - N/A   Clear
5:53 AM 27.0 °F 19.5 °F 19.9 °F 75% 29.96 in 10.0 mi South 6.9 mph - N/A   Clear
6:53 AM 26.1 °F 16.8 °F 19.9 °F 78% 29.97 in 10.0 mi SSW 9.2 mph - N/A   Clear
7:53 AM 28.0 °F 21.7 °F 21.0 °F 75% 29.96 in 10.0 mi SSW 5.8 mph - N/A   Clear
8:53 AM 36.0 °F 29.6 °F 21.0 °F 55% 29.96 in 10.0 mi SSW 8.1 mph - N/A   Clear
9:53 AM 46.0 °F 39.0 °F 16.0 °F 30% 29.94 in 10.0 mi WSW 17.3 mph 23.0 mph N/A   Clear
10:53 AM 52.0 °F - 14.0 °F 22% 29.92 in 10.0 mi SW 19.6 mph 25.3 mph N/A   Clear
11:53 AM 54.0 °F - 15.1 °F 22% 29.90 in 10.0 mi WSW 25.3 mph 39.1 mph N/A   Clear
12:53 PM 55.9 °F - 17.1 °F 22% 29.88 in 10.0 mi WSW 25.3 mph 35.7 mph N/A   Clear
1:53 PM 57.0 °F - 18.0 °F 22% 29.85 in 10.0 mi WSW 31.1 mph 41.4 mph N/A   Clear
2:53 PM 59.0 °F - 18.0 °F 20% 29.84 in 10.0 mi WSW 19.6 mph 32.2 mph N/A   Clear
3:53 PM 59.0 °F - 19.0 °F 21% 29.86 in 10.0 mi West 17.3 mph 35.7 mph N/A   Clear
4:53 PM 57.0 °F - 18.0 °F 22% 29.86 in 10.0 mi West 16.1 mph 31.1 mph N/A   Clear
5:53 PM 53.1 °F - 19.0 °F 26% 29.88 in 10.0 mi West 10.4 mph - N/A   Clear
6:53 PM 46.0 °F 43.1 °F 21.0 °F 37% 29.92 in 10.0 mi West 5.8 mph - N/A   Clear
7:53 PM 44.1 °F 40.1 °F 21.0 °F 40% 29.94 in 10.0 mi West 6.9 mph - N/A   Clear
8:53 PM 36.0 °F 29.6 °F 21.9 °F 57% 29.94 in 10.0 mi SSW 8.1 mph - N/A   Clear
9:53 PM 41.0 °F 36.4 °F 21.9 °F 47% 29.94 in 10.0 mi West 6.9 mph - N/A   Clear
10:53 PM 37.0 °F 31.0 °F 21.9 °F 54% 29.94 in 10.0 mi SSW 8.1 mph - N/A   Clear
11:53 PM 34.0 °F 27.2 °F 23.0 °F 64% 29.94 in 10.0 mi SW 8.1 mph - N/A   Clear